This is the latest recevied weather packets stored in our database for station/object IZ1UQG-1. If no packets are shown the sender has not sent any weather packets the latest 10 day(s).
| Time | Temp. | Humidity | Pressure | Rain* | Wind** | Luminosity | Snow |
|---|---|---|---|---|---|---|---|
| 1778081933 | 15° C | 85% | 1008.6 hPa | 1.27 mm | - | - | - |
| 1778081633 | 15° C | 85% | 1008.5 hPa | 8.38 mm | - | - | - |
| 1778081333 | 15° C | 85% | 1008.7 hPa | 249.43 mm | - | - | - |
| 1778081033 | 15° C | 86% | 1008.9 hPa | 247.9 mm | - | - | - |
| 1778080733 | 14.44° C | 86% | 1008.8 hPa | 240.28 mm | - | - | - |
| 1778080433 | 14.44° C | 86% | 1008.9 hPa | 226.82 mm | - | - | - |
| 1778080133 | 14.44° C | 86% | 1009.1 hPa | 219.46 mm | - | - | - |
| 1778079833 | 14.44° C | 86% | 1008.8 hPa | 202.44 mm | - | - | - |
| 1778079533 | 14.44° C | 86% | 1008.9 hPa | 180.59 mm | - | - | - |
| 1778079233 | 14.44° C | 86% | 1009 hPa | 203.45 mm | - | - | - |
| 1778078933 | 13.89° C | 86% | 1009 hPa | 182.12 mm | - | - | - |
| 1778078633 | 14.44° C | 86% | 1009.1 hPa | 179.07 mm | - | - | - |
| 1778078333 | 14.44° C | 86% | 1009.1 hPa | 162.56 mm | - | - | - |
| 1778078033 | 13.89° C | 86% | 1009.1 hPa | 171.45 mm | - | - | - |
| 1778077733 | 14.44° C | 86% | 1009.3 hPa | 170.18 mm | - | - | - |
| 1778077433 | 13.89° C | 86% | 1009.4 hPa | 159 mm | - | - | - |
| 1778077133 | 13.89° C | 86% | 1009.4 hPa | 158.5 mm | - | - | - |
| 1778076833 | 13.89° C | 86% | 1009.5 hPa | 157.99 mm | - | - | - |
| 1778076533 | 13.89° C | 86% | 1009.4 hPa | 164.08 mm | - | - | - |
| 1778076233 | 13.89° C | 86% | 1009.5 hPa | 155.7 mm | - | - | - |
| 1778075933 | 13.89° C | 86% | 1009.3 hPa | 135.64 mm | - | - | - |
| 1778075633 | 13.89° C | 86% | 1009.4 hPa | 136.14 mm | - | - | - |
| 1778075333 | 13.89° C | 86% | 1009.3 hPa | 136.14 mm | - | - | - |
| 1778075033 | 13.33° C | 85% | 1009.5 hPa | 128.78 mm | - | - | - |
| 1778074733 | 13.33° C | 85% | 1009.7 hPa | 124.71 mm | - | - | - |
* Rain latest hour (hover to see other rain measurements)
** Current wind speed in m/s (hover to see current wind gust speed)